• en Belgique
  • Liste des pays
  • À 7 jours
  • Température de l'eau
  • Carte satellitaire
  • Carte météo
  • Widgets météo
  • user-avatar
    Se connecter

    Météo par heure à Indianapolis

    Ce jour, 23 Septembre, Dimanche

    Heure Température Précipitation Vent Pression Humidité
    00:00 +14°C° 0 mm 2 m/s 745 mmHg 96%
    01:00 +14°C° 0 mm 2 m/s 745 mmHg 96%
    02:00 +14°C° 0 mm 2 m/s 745 mmHg 96%
    03:00 +14°C° 0 mm 2 m/s 745 mmHg 96%
    04:00 +13°C° 0 mm 2 m/s 745 mmHg 96%
    05:00 +13°C° 0 mm 2 m/s 745 mmHg 96%
    06:00 +13°C° 0 mm 2 m/s 745 mmHg 96%
    07:00 +14°C° 0 mm 3 m/s 745 mmHg 90%
    08:00 +17°C° 0 mm 3 m/s 745 mmHg 85%
    09:00 +18°C° 0 mm 3 m/s 745 mmHg 79%
    10:00 +20°C° 0 mm 3 m/s 745 mmHg 75%
    11:00 +21°C° 0 mm 3 m/s 745 mmHg 71%
    12:00 +23°C° 0 mm 4 m/s 745 mmHg 67%
    13:00 +24°C° 0 mm 3 m/s 745 mmHg 68%
    14:00 +24°C° 0 mm 3 m/s 744 mmHg 68%
    15:00 +24°C° 0 mm 3 m/s 744 mmHg 69%
    16:00 +21°C° 0 mm 3 m/s 744 mmHg 75%
    17:00 +20°C° 0 mm 3 m/s 744 mmHg 80%
    18:00 +18°C° 0 mm 3 m/s 744 mmHg 86%
    19:00 +18°C° 0 mm 3 m/s 744 mmHg 88%
    20:00 +17°C° 0 mm 3 m/s 744 mmHg 90%
    21:00 +16°C° 0 mm 3 m/s 744 mmHg 92%
    22:00 +16°C° 0 mm 3 m/s 744 mmHg 93%
    23:00 +16°C° 0 mm 3 m/s 744 mmHg 93%

    Demain, 24 Septembre, Lundi

    Heure Température Précipitation Vent Pression Humidité
    00:00 +16°C° 0 mm 3 m/s 744 mmHg 94%
    01:00 +16°C° 0.2 mm 3 m/s 744 mmHg 94%
    02:00 +16°C° 0.2 mm 3 m/s 744 mmHg 94%
    03:00 +16°C° 0.2 mm 3 m/s 744 mmHg 94%
    04:00 +16°C° 0.3 mm 3 m/s 744 mmHg 95%
    05:00 +17°C° 0.3 mm 3 m/s 744 mmHg 96%
    06:00 +17°C° 0.3 mm 3 m/s 744 mmHg 96%
    07:00 +18°C° 0 mm 3 m/s 744 mmHg 95%
    08:00 +19°C° 0 mm 3 m/s 744 mmHg 93%
    09:00 +20°C° 0 mm 3 m/s 744 mmHg 92%
    10:00 +22°C° 0 mm 4 m/s 744 mmHg 85%
    11:00 +25°C° 0 mm 4 m/s 744 mmHg 79%
    12:00 +27°C° 0 mm 5 m/s 744 mmHg 73%
    13:00 +27°C° 0.5 mm 5 m/s 743 mmHg 75%
    14:00 +26°C° 0.5 mm 5 m/s 742 mmHg 77%
    15:00 +26°C° 0.5 mm 5 m/s 742 mmHg 79%
    16:00 +25°C° 0.6 mm 4 m/s 742 mmHg 83%
    17:00 +23°C° 0.6 mm 4 m/s 742 mmHg 87%
    18:00 +22°C° 0.6 mm 4 m/s 742 mmHg 91%
    19:00 +22°C° 0.2 mm 4 m/s 742 mmHg 92%
    20:00 +21°C° 0.2 mm 4 m/s 742 mmHg 93%
    21:00 +21°C° 0.2 mm 4 m/s 742 mmHg 93%
    22:00 +21°C° 0.3 mm 4 m/s 742 mmHg 94%
    23:00 +21°C° 0.3 mm 4 m/s 742 mmHg 95%

    Après-demain, 25 Septembre, Mardi

    Heure Température Précipitation Vent Pression Humidité
    00:00 +21°C° 0.3 mm 4 m/s 742 mmHg 96%
    01:00 +21°C° 0.6 mm 4 m/s 742 mmHg 96%
    02:00 +21°C° 0.6 mm 4 m/s 742 mmHg 96%
    03:00 +21°C° 0.6 mm 4 m/s 741 mmHg 96%
    04:00 +21°C° 0.8 mm 4 m/s 741 mmHg 96%
    05:00 +22°C° 0.8 mm 4 m/s 742 mmHg 96%
    06:00 +22°C° 0.8 mm 3 m/s 742 mmHg 96%
    07:00 +22°C° 0 mm 3 m/s 742 mmHg 95%
    08:00 +22°C° 0 mm 3 m/s 742 mmHg 94%
    09:00 +24°C° 0 mm 3 m/s 742 mmHg 93%
    10:00 +23°C° 0.1 mm 4 m/s 742 mmHg 91%
    11:00 +25°C° 0.1 mm 4 m/s 742 mmHg 89%
    12:00 +25°C° 0.1 mm 4 m/s 742 mmHg 88%
    13:00 +26°C° 0.1 mm 4 m/s 741 mmHg 86%
    14:00 +26°C° 0.1 mm 4 m/s 741 mmHg 84%
    15:00 +27°C° 0.1 mm 4 m/s 740 mmHg 82%
    16:00 +26°C° 0.4 mm 4 m/s 740 mmHg 86%
    17:00 +25°C° 0.4 mm 3 m/s 740 mmHg 90%
    18:00 +24°C° 0.4 mm 3 m/s 740 mmHg 93%
    19:00 +24°C° 0.7 mm 3 m/s 740 mmHg 94%
    20:00 +22°C° 0.7 mm 3 m/s 740 mmHg 95%
    21:00 +22°C° 0.7 mm 4 m/s 740 mmHg 96%
    22:00 +22°C° 0.9 mm 4 m/s 740 mmHg 96%
    23:00 +22°C° 0.9 mm 4 m/s 739 mmHg 96%

    26 Septembre, Mercredi

    Heure Température Précipitation Vent Pression Humidité
    00:00 +22°C° 0.9 mm 4 m/s 739 mmHg 96%
    01:00 +22°C° 0 mm 4 m/s 738 mmHg 96%
    02:00 +21°C° 0 mm 4 m/s 738 mmHg 97%
    03:00 +21°C° 0 mm 4 m/s 738 mmHg 97%
    04:00 +21°C° 0 mm 4 m/s 738 mmHg 97%
    05:00 +21°C° 0 mm 4 m/s 738 mmHg 97%
    06:00 +21°C° 0 mm 5 m/s 738 mmHg 96%
    07:00 +21°C° 0 mm 5 m/s 739 mmHg 94%
    08:00 +21°C° 0 mm 5 m/s 740 mmHg 92%
    09:00 +20°C° 0 mm 5 m/s 740 mmHg 89%
    10:00 +20°C° 0 mm 5 m/s 741 mmHg 86%
    11:00 +20°C° 0 mm 6 m/s 741 mmHg 83%
    12:00 +19°C° 0 mm 6 m/s 741 mmHg 79%
    13:00 +19°C° 0 mm 5 m/s 742 mmHg 76%
    14:00 +20°C° 0 mm 5 m/s 742 mmHg 73%
    15:00 +20°C° 0 mm 4 m/s 742 mmHg 70%
    16:00 +18°C° 0 mm 4 m/s 742 mmHg 74%
    17:00 +17°C° 0 mm 3 m/s 743 mmHg 78%
    18:00 +15°C° 0 mm 2 m/s 743 mmHg 82%
    19:00 +15°C° 0 mm 2 m/s 743 mmHg 84%
    20:00 +14°C° 0 mm 2 m/s 744 mmHg 85%
    21:00 +14°C° 0 mm 1 m/s 744 mmHg 86%
    22:00 +14°C° 0 mm 1 m/s 744 mmHg 86%
    23:00 +13°C° 0 mm 1 m/s 744 mmHg 85%

    27 Septembre, Jeudi

    Heure Température Précipitation Vent Pression Humidité
    00:00 +13°C° 0 mm 2 m/s 744 mmHg 84%
    01:00 +13°C° 0 mm 1 m/s 744 mmHg 84%
    02:00 +13°C° 0 mm 1 m/s 744 mmHg 83%
    03:00 +13°C° 0 mm 1 m/s 744 mmHg 83%
    04:00 +12°C° 0 mm 1 m/s 744 mmHg 84%
    05:00 +12°C° 0 mm 1 m/s 744 mmHg 85%
    06:00 +12°C° 0 mm 1 m/s 744 mmHg 87%
    07:00 +14°C° 0 mm 1 m/s 744 mmHg 81%
    08:00 +15°C° 0 mm 1 m/s 744 mmHg 75%
    09:00 +18°C° 0 mm 1 m/s 744 mmHg 69%
    10:00 +18°C° 0 mm 2 m/s 743 mmHg 63%
    11:00 +19°C° 0 mm 2 m/s 743 mmHg 58%
    12:00 +21°C° 0 mm 2 m/s 743 mmHg 53%
    13:00 +21°C° 0 mm 2 m/s 742 mmHg 53%
    14:00 +21°C° 0 mm 2 m/s 742 mmHg 53%
    15:00 +21°C° 0 mm 2 m/s 741 mmHg 52%
    16:00 +21°C° 0 mm 1 m/s 741 mmHg 58%
    17:00 +19°C° 0 mm 1 m/s 741 mmHg 63%
    18:00 +16°C° 0 mm 1 m/s 741 mmHg 69%
    19:00 +16°C° 0 mm 1 m/s 742 mmHg 72%
    20:00 +15°C° 0 mm 1 m/s 742 mmHg 74%
    21:00 +15°C° 0 mm 1 m/s 742 mmHg 77%
    22:00 +14°C° 0 mm 1 m/s 742 mmHg 78%
    23:00 +14°C° 0 mm 2 m/s 742 mmHg 80%

    28 Septembre, Vendredi

    Heure Température Précipitation Vent Pression Humidité
    00:00 +14°C° 0 mm 2 m/s 742 mmHg 81%
    01:00 +14°C° 0 mm 2 m/s 742 mmHg 82%
    02:00 +14°C° 0 mm 2 m/s 742 mmHg 83%
    03:00 +13°C° 0 mm 2 m/s 742 mmHg 84%
    04:00 +13°C° 0 mm 2 m/s 743 mmHg 85%
    05:00 +13°C° 0 mm 2 m/s 743 mmHg 87%
    06:00 +13°C° 0 mm 1 m/s 743 mmHg 88%
    07:00 +14°C° 0 mm 2 m/s 744 mmHg 81%
    08:00 +16°C° 0 mm 3 m/s 744 mmHg 74%
    09:00 +17°C° 0 mm 4 m/s 745 mmHg 67%
    10:00 +18°C° 0 mm 4 m/s 745 mmHg 62%
    11:00 +19°C° 0 mm 5 m/s 745 mmHg 57%
    12:00 +20°C° 0 mm 5 m/s 745 mmHg 53%
    13:00 +19°C° 0 mm 5 m/s 745 mmHg 52%
    14:00 +19°C° 0 mm 5 m/s 745 mmHg 52%
    15:00 +19°C° 0 mm 5 m/s 746 mmHg 51%
    16:00 +17°C° 0 mm 3 m/s 746 mmHg 55%
    17:00 +15°C° 0 mm 2 m/s 746 mmHg 58%
    18:00 +14°C° 0 mm 1 m/s 746 mmHg 62%
    19:00 +13°C° 0 mm 1 m/s 747 mmHg 63%
    20:00 +13°C° 0 mm 1 m/s 747 mmHg 64%
    21:00 +12°C° 0 mm 1 m/s 747 mmHg 65%
    22:00 +12°C° 0 mm 1 m/s 747 mmHg 65%
    23:00 +12°C° 0 mm 1 m/s 747 mmHg 66%
    Voir plus